Wind_Speed
5 5 6 6 7 7 8 7 7 6 6 5 5 5 5 6 5 5 5 5 5 4 3 3 2 2 2 2 1 1 1 1 2 2 2 2 2 2 2 2 2 2 1 1 1 1 1 1 2
6 6 6 7 7 8 8 8 8 7 7 6 5 5 5 6 6 6 5 5 5 4 4 4 3 3 2 1 1 1 1 1 1 1 2 1 1 1 1 2 2 1 1 1 1 2 1 1 2
7 7 7 7 7 8 9 9 9 8 7 7 7 6 5 5 6 6 5 5 5 4 4 4 3 3 3 2 1 1 1 1 1 1 1 1 1 1 2 2 2 1 1 1 1 1 1 2 2
7 7 7 7 8 8 8 9 9 8 8 8 7 7 5 5 6 5 5 5 5 4 4 4 4 4 3 3 2 2 1 1 1 1 1 2 1 1 2 1 1 1 1 1 1 1 2 2 2
8 8 8 8 8 8 8 9 9 9 8 8 8 7 6 6 7 6 5 5 5 5 5 4 5 4 4 3 3 3 1 1 1 1 1 2 2 1 1 1 1 1 1 2 2 2 1 2 2
8 8 8 8 8 8 8 9 9 9 9 8 8 8 7 7 7 7 6 5 5 5 5 5 4 4 4 4 3 2 2 1 1 2 2 2 2 2 1 1 1 1 1 2 2 1 1 2 2
7 8 8 8 8 8 8 9 9 10 9 9 9 8 9 9 8 7 6 6 6 6 6 5 5 4 5 4 3 3 3 3 3 3 3 3 3 2 1 1 1 1 1 2 2 2 3 3 3
8 7 7 8 8 8 9 9 9 10 9 9 9 9 9 9 8 8 7 7 6 6 7 6 6 6 5 5 4 4 4 4 4 3 3 4 3 2 2 1 1 1 1 2 2 2 3 3 3
8 8 8 8 8 8 8 9 9 9 9 9 9 9 8 9 9 8 8 7 7 6 7 7 7 6 6 6 6 5 5 5 4 4 4 4 3 2 2 2 1 1 2 2 2 2 3 3 2
8 9 9 9 8 8 8 8 9 10 10 9 9 9 9 9 9 9 8 8 7 7 7 8 7 7 7 7 6 6 6 6 5 4 4 3 2 2 2 1 1 1 2 2 3 3 3 3 3
9 9 9 9 9 9 8 8 9 9 9 9 9 10 10 9 9 9 9 9 9 8 8 8 8 8 8 7 7 6 6 6 5 4 4 3 3 2 2 2 2 2 2 2 3 3 3 3 3
9 9 10 10 10 9 9 9 9 9 9 9 9 10 10 10 10 9 9 9 9 8 8 8 8 8 8 8 7 6 6 6 5 5 4 4 4 3 3 2 2 2 2 2 2 3 3 3 2
9 9 10 10 10 10 9 9 9 9 10 9 9 10 9 9 10 10 10 10 10 9 9 9 9 9 8 8 7 7 6 6 6 5 5 4 4 3 3 3 3 2 2 2 2 3 3 2 2
9 9 9 9 9 9 9 9 9 10 10 10 10 10 10 10 11 11 10 11 11 10 10 9 9 9 8 8 7 7 7 6 6 6 5 5 5 4 4 4 3 3 3 2 3 3 3 3 3
9 9 8 9 9 10 9 10 10 10 10 10 10 11 10 10 10 10 10 10 10 10 10 9 9 9 9 8 8 7 6 6 6 5 5 4 5 4 4 3 3 3 3 3 3 3 4 3 3
9 9 8 9 10 10 10 11 11 10 10 9 9 10 10 10 10 10 10 10 10 10 10 9 9 9 8 8 8 7 6 6 5 5 5 4 4 4 4 3 3 3 3 3 3 3 3 3 3
10 9 10 10 10 10 10 11 11 10 10 10 10 10 10 10 11 11 10 10 10 10 9 10 10 9 8 8 7 7 6 5 5 5 5 4 4 4 3 3 3 3 3 3 3 3 3 3 3
10 10 11 10 10 10 10 11 10 10 11 11 10 10 10 11 11 11 10 10 10 10 10 10 10 9 8 8 7 7 6 6 5 5 5 4 4 4 4 4 4 4 4 4 4 3 3 3 3
10 11 11 11 10 10 11 11 11 10 11 11 10 10 10 11 11 11 11 10 10 10 10 10 10 9 9 8 8 7 7 6 6 6 5 4 4 4 4 4 4 4 4 4 4 3 3 3 3
10 11 10 11 11 11 10 11 11 11 11 10 10 10 11 11 11 11 11 11 10 10 10 10 10 10 9 9 8 8 7 7 6 6 6 5 5 5 4 4 4 4 4 4 4 4 4 4 4
11 11 10 10 11 11 11 11 11 11 11 11 10 10 10 11 11 11 11 12 11 11 11 10 10 10 10 10 9 8 8 7 7 7 6 6 5 5 4 4 4 4 4 4 4 4 5 5 4
11 11 11 10 11 11 11 11 11 11 11 11 11 10 11 11 11 11 12 12 12 12 12 12 11 11 10 10 10 9 8 8 7 7 6 6 5 5 5 4 5 5 4 5 5 5 5 5 5
11 11 10 10 11 11 11 11 10 10 10 10 11 11 11 12 12 12 12 12 12 13 12 12 11 11 11 11 11 10 10 9 8 8 7 6 5 6 6 6 6 5 5 5 5 5 5 5 5
11 11 11 11 11 12 11 11 11 11 10 10 11 11 12 13 13 12 12 12 12 13 13 13 12 12 12 12 12 12 11 11 10 9 8 8 7 7 7 7 6 6 6 6 5 5 6 6 6
11 11 11 11 12 12 11 12 11 11 11 10 11 11 13 13 13 13 13 13 13 13 13 13 13 13 13 12 12 12 12 12 11 10 10 9 9 9 8 8 7 7 7 7 6 5 6 6 6
12 12 12 12 12 12 12 12 11 11 11 11 11 12 13 13 13 13 14 13 14 14 14 14 14 14 14 13 12 12 12 12 12 11 11 10 10 10 10 10 9 9 8 8 8 7 7 7 7
13 13 13 13 13 13 13 12 12 11 11 12 12 12 13 13 14 14 14 15 15 15 15 15 15 15 15 14 13 13 13 13 13 12 11 11 10 10 11 11 10 9 9 9 9 8 8 8 8
14 14 14 14 14 14 14 13 13 13 12 12 13 13 13 13 13 14 15 15 15 15 15 16 16 16 15 15 14 13 13 13 13 13 12 12 11 12 11 11 11 11 10 10 10 10 9 9 9
15 15 15 14 15 14 14 14 13 13 13 13 14 14 14 13 14 14 15 15 15 16 16 15 16 16 16 15 15 14 14 14 14 13 13 13 13 13 12 12 12 12 11 11 11 11 11 10 10
16 16 15 15 15 15 14 14 13 13 13 13 14 14 14 14 14 15 15 15 15 16 16 16 16 16 16 16 16 16 15 15 15 14 14 14 14 14 14 14 13 13 12 11 11 11 11 11 12
Wind_Direction
204 194 193 191 191 197 205 204 204 202 200 198 197 188 185 189 187 182 176 174 174 172 175 181 188 185 150 125 115 83 101 80 54 40 27 27 25 9 1 349 336 332 334 323 278 285 286 260 256
207 198 197 194 194 202 208 209 210 207 205 203 200 188 184 191 191 188 188 187 190 193 197 197 203 199 199 167 147 157 132 101 85 44 16 13 355 334 341 340 345 344 322 320 292 285 285 270 263
209 205 204 203 201 207 210 211 213 210 209 208 205 198 191 194 196 195 199 199 202 207 208 208 213 206 205 193 187 191 196 158 152 36 346 335 327 338 345 336 352 346 330 328 319 299 289 286 271
212 211 213 215 212 213 218 217 212 211 211 212 205 200 199 200 197 199 204 202 206 210 211 214 220 216 210 213 209 201 218 216 195 316 328 318 308 322 324 316 330 333 325 342 326 306 292 292 283
212 213 216 220 218 215 219 212 212 212 212 212 210 208 210 201 199 198 199 204 209 208 208 213 218 215 215 218 225 224 221 213 207 272 322 337 326 303 308 304 282 293 320 323 306 300 299 308 306
214 212 215 218 219 218 216 210 211 210 210 211 211 212 209 206 204 201 203 208 208 209 214 217 221 215 224 234 233 217 218 228 246 266 301 323 326 312 284 283 293 298 319 332 330 321 318 315 307
210 209 213 216 219 216 212 214 214 213 215 216 215 216 209 205 202 200 205 210 214 214 217 225 222 229 227 225 228 225 234 236 248 272 293 301 303 302 283 264 271 286 302 333 328 323 323 318 310
211 209 209 212 215 217 214 213 215 216 216 213 211 210 210 206 204 203 209 215 218 215 217 224 227 229 229 236 234 233 244 251 258 276 290 293 294 296 281 253 252 272 287 309 320 323 326 328 314
209 208 210 209 211 216 215 214 213 213 214 212 213 212 212 212 212 210 213 216 215 217 220 225 228 230 235 238 239 240 253 262 262 272 283 285 283 283 273 268 269 278 286 306 316 318 326 329 317
210 209 211 211 211 213 212 214 214 212 215 218 219 220 221 215 212 213 216 219 223 222 223 223 225 230 234 237 238 244 257 263 265 271 276 280 276 268 253 251 263 289 298 317 322 317 319 335 338
213 214 214 215 214 214 214 217 219 214 217 220 225 223 222 219 215 215 220 224 229 227 222 225 227 235 238 240 241 246 256 260 262 266 272 284 282 274 268 259 264 283 299 307 313 315 318 329 335
217 219 218 219 218 220 220 221 222 220 222 223 225 227 226 222 219 221 226 230 234 236 234 232 234 240 242 243 240 244 250 255 256 257 267 277 274 271 273 268 273 279 292 302 313 319 317 319 333
221 221 218 220 221 221 221 222 223 223 226 226 226 230 227 225 225 225 232 235 237 239 241 241 242 246 244 241 241 243 247 253 255 257 264 275 276 272 279 277 270 273 278 291 299 313 316 318 322
224 223 218 217 218 221 225 223 223 228 229 230 232 232 231 231 231 231 235 237 238 240 240 240 243 245 244 241 240 244 246 250 252 252 256 264 270 273 274 272 263 261 269 285 298 305 303 302 300
228 228 227 223 222 225 231 228 230 233 234 236 239 237 231 232 229 232 235 235 237 239 240 242 240 244 243 242 244 245 245 247 248 251 252 261 267 265 265 264 261 260 264 276 294 301 297 296 298
230 231 231 228 227 229 232 231 234 235 237 238 240 240 239 236 230 234 236 238 240 238 238 237 239 244 247 242 240 242 244 245 244 246 250 256 265 266 265 265 259 264 266 274 289 301 298 294 304
230 230 230 232 230 230 231 231 234 234 237 240 242 241 242 240 234 234 235 238 237 235 233 234 238 242 244 241 239 239 240 238 239 245 250 252 257 262 263 264 260 260 269 277 284 291 296 298 304
230 230 234 234 235 234 231 233 235 237 240 243 243 243 241 238 232 232 235 236 234 233 234 233 234 235 237 238 236 237 238 237 241 247 247 248 250 256 259 260 258 259 267 274 276 279 283 285 292
230 232 234 236 237 237 236 238 241 241 241 242 242 242 240 238 235 235 238 236 234 233 232 231 233 234 233 235 233 234 234 234 240 248 251 248 250 256 261 260 260 265 267 266 262 267 275 281 297
234 238 237 237 238 238 240 243 244 245 245 242 242 243 239 239 240 236 234 233 233 232 232 232 231 233 233 232 231 231 230 232 240 242 246 250 252 256 259 262 266 267 265 264 265 265 271 278 286
238 237 239 239 239 240 244 246 246 247 246 242 242 245 242 239 237 235 235 235 234 232 233 234 234 234 232 230 229 228 233 238 239 241 247 252 251 251 257 264 268 273 269 268 269 268 274 276 284
234 235 238 237 238 239 242 244 245 244 245 244 244 244 243 241 240 239 238 236 235 236 236 234 234 233 232 231 231 234 237 239 240 243 250 257 254 251 262 268 267 272 272 270 274 274 274 274 278
231 235 239 241 242 243 243 243 244 244 245 245 244 244 242 242 244 243 242 240 237 238 238 235 235 234 233 233 234 236 238 240 241 243 250 253 252 253 259 265 266 267 271 273 277 276 275 274 277
232 233 237 242 243 244 245 247 245 245 246 246 244 244 241 241 243 244 242 240 239 240 239 238 237 236 235 235 237 238 239 238 241 246 249 252 252 254 255 259 265 263 268 275 278 277 277 278 280
232 232 238 242 243 246 244 247 247 246 246 246 247 247 244 243 243 243 242 240 240 241 241 241 239 237 238 237 239 241 240 240 242 246 249 252 256 259 255 256 262 265 267 271 277 279 282 282 282
233 234 237 242 247 249 246 247 248 247 245 247 250 252 248 246 246 245 244 242 242 243 243 242 241 238 238 239 241 242 242 242 243 246 250 254 259 262 260 259 264 266 268 269 273 275 279 283 283
235 235 237 243 247 250 249 245 245 247 248 247 250 254 253 248 245 244 244 244 245 246 247 243 241 239 237 238 241 242 243 244 245 247 251 254 257 261 262 260 261 262 263 266 267 271 274 279 284
235 237 239 242 247 248 247 245 247 249 251 251 250 251 251 248 248 245 245 246 247 248 246 242 239 239 238 237 240 242 244 245 246 246 250 253 255 257 260 262 263 262 263 263 266 269 273 276 283
237 238 241 245 245 246 248 248 250 253 252 251 250 250 250 249 249 247 247 248 249 248 245 243 238 240 239 238 240 243 245 247 247 248 251 253 254 256 258 259 261 262 263 263 265 271 275 276 279
239 242 243 245 246 247 248 250 252 255 254 254 252 251 252 252 253 250 248 248 248 248 246 244 242 241 240 241 242 244 245 246 246 248 252 254 255 255 257 258 259 259 261 264 265 269 273 274 278
Height
5884 5885 5886 5888 5890 5891 5891 5892 5892 5893 5894 5894 5894 5894 5895 5896 5898 5900 5898 5897 5897 5897 5896 5896 5896 5896 5896 5895 5895 5895 5895 5895 5894 5894 5893 5892 5892 5891 5891 5891 5890 5889 5889 5888 5888 5888 5888 5888 5888
5883 5884 5886 5887 5888 5889 5890 5891 5891 5892 5893 5893 5894 5894 5894 5895 5896 5896 5896 5896 5897 5896 5896 5896 5896 5896 5895 5895 5895 5895 5895 5894 5894 5894 5893 5892 5892 5891 5891 5890 5890 5889 5888 5888 5888 5887 5887 5887 5887
5882 5883 5886 5886 5887 5888 5889 5889 5890 5891 5891 5892 5893 5893 5894 5894 5895 5895 5895 5896 5896 5896 5896 5896 5896 5895 5895 5895 5895 5895 5894 5894 5894 5894 5893 5892 5892 5891 5891 5890 5889 5889 5888 5888 5887 5887 5887 5886 5886
5881 5883 5885 5886 5885 5886 5887 5888 5889 5890 5890 5891 5892 5893 5893 5894 5894 5895 5895 5895 5895 5895 5895 5895 5895 5895 5894 5894 5894 5894 5894 5894 5894 5893 5893 5892 5892 5891 5890 5890 5889 5889 5888 5887 5887 5886 5886 5886 5885
5879 5881 5883 5883 5884 5885 5885 5886 5887 5888 5889 5890 5891 5892 5892 5892 5893 5894 5894 5894 5894 5894 5895 5895 5895 5895 5894 5894 5894 5894 5894 5894 5893 5893 5893 5892 5891 5890 5890 5889 5889 5888 5888 5887 5886 5886 5885 5885 5885
5879 5880 5881 5882 5883 5884 5884 5885 5886 5887 5888 5889 5890 5891 5891 5891 5892 5893 5893 5894 5894 5894 5894 5894 5894 5894 5894 5894 5894 5894 5894 5894 5893 5893 5892 5892 5891 5890 5890 5889 5889 5888 5887 5887 5886 5886 5885 5884 5884
5878 5878 5879 5880 5881 5882 5883 5884 5885 5886 5887 5888 5889 5889 5889 5890 5891 5891 5892 5893 5893 5893 5893 5893 5894 5894 5893 5893 5894 5894 5893 5893 5893 5892 5892 5891 5890 5889 5889 5889 5888 5888 5887 5887 5886 5885 5885 5884 5883
5875 5878 5878 5879 5880 5881 5882 5883 5884 5884 5885 5887 5887 5888 5889 5889 5890 5890 5891 5891 5892 5892 5892 5892 5893 5893 5893 5893 5893 5893 5893 5892 5892 5892 5891 5890 5889 5889 5888 5888 5888 5887 5887 5886 5886 5885 5884 5884 5883
5874 5877 5877 5878 5879 5880 5881 5881 5882 5883 5884 5885 5886 5887 5887 5888 5888 5889 5890 5890 5891 5891 5891 5892 5892 5892 5892 5892 5892 5892 5892 5892 5891 5891 5890 5889 5889 5888 5888 5887 5887 5887 5887 5886 5886 5885 5884 5883 5883
5873 5874 5875 5876 5877 5878 5879 5880 5881 5881 5882 5884 5885 5885 5886 5886 5887 5888 5889 5889 5889 5890 5890 5890 5890 5891 5891 5891 5891 5891 5891 5891 5891 5890 5890 5889 5888 5888 5887 5887 5887 5887 5886 5886 5885 5885 5884 5883 5882
5871 5872 5873 5874 5875 5876 5877 5879 5879 5880 5881 5882 5883 5884 5884 5885 5886 5887 5887 5888 5888 5888 5889 5889 5889 5890 5890 5890 5890 5890 5890 5890 5890 5889 5889 5888 5888 5887 5887 5887 5887 5886 5886 5886 5885 5884 5884 5883 5882
5870 5870 5872 5873 5874 5875 5876 5877 5878 5879 5880 5881 5881 5882 5883 5884 5885 5885 5886 5886 5887 5887 5888 5888 5888 5889 5889 5889 5889 5889 5889 5889 5889 5889 5888 5888 5888 5887 5887 5886 5886 5886 5886 5885 5885 5884 5883 5882 5882
5868 5869 5870 5871 5872 5874 5875 5876 5877 5877 5878 5879 5880 5881 5881 5882 5882 5884 5884 5885 5885 5886 5886 5887 5887 5888 5888 5888 5888 5888 5888 5888 5888 5888 5888 5887 5887 5887 5886 5886 5886 5886 5885 5885 5884 5884 5883 5882 5882
5867 5867 5869 5870 5871 5872 5873 5874 5875 5876 5877 5878 5878 5879 5880 5880 5881 5882 5882 5883 5884 5884 5885 5885 5886 5886 5886 5887 5887 5887 5887 5887 5887 5887 5887 5887 5886 5886 5886 5886 5886 5885 5885 5884 5884 5883 5882 5882 5881
5865 5866 5867 5868 5869 5871 5872 5873 5874 5874 5875 5876 5876 5877 5878 5878 5879 5880 5881 5881 5882 5882 5883 5884 5884 5884 5885 5885 5886 5886 5886 5886 5886 5886 5886 5886 5886 5885 5885 5885 5885 5884 5884 5884 5883 5882 5882 5881 5880
5864 5865 5866 5867 5868 5869 5872 5872 5872 5873 5874 5874 5875 5875 5876 5877 5878 5879 5879 5879 5880 5881 5881 5882 5883 5883 5884 5884 5884 5884 5885 5885 5885 5885 5885 5885 5885 5884 5884 5884 5884 5884 5883 5883 5883 5882 5881 5880 5879
5862 5864 5865 5866 5866 5868 5869 5870 5870 5871 5872 5872 5873 5873 5874 5875 5876 5877 5877 5878 5878 5879 5880 5880 5881 5882 5882 5883 5883 5883 5884 5884 5884 5884 5884 5884 5884 5884 5883 5883 5883 5883 5882 5882 5882 5881 5880 5880 5879
5861 5862 5863 5864 5865 5866 5867 5867 5868 5869 5870 5870 5871 5871 5872 5873 5874 5875 5876 5876 5877 5877 5878 5879 5880 5880 5881 5881 5882 5882 5883 5883 5883 5883 5883 5882 5883 5883 5882 5882 5882 5882 5882 5881 5881 5880 5880 5879 5878
5859 5860 5861 5862 5862 5864 5864 5865 5866 5867 5867 5868 5869 5869 5870 5871 5872 5873 5873 5874 5875 5875 5876 5877 5878 5879 5879 5880 5880 5881 5881 5882 5882 5882 5882 5882 5881 5881 5881 5881 5881 5881 5880 5880 5880 5879 5879 5878 5878
5857 5858 5859 5860 5860 5861 5862 5863 5864 5864 5865 5866 5867 5867 5868 5869 5870 5871 5871 5872 5873 5874 5875 5875 5876 5877 5878 5878 5879 5879 5880 5880 5880 5880 5880 5880 5880 5880 5880 5880 5880 5879 5879 5879 5879 5878 5878 5877 5877
5854 5856 5857 5858 5858 5859 5860 5861 5862 5862 5863 5864 5864 5865 5866 5867 5868 5869 5869 5870 5871 5872 5873 5874 5875 5875 5876 5877 5877 5878 5879 5879 5879 5879 5879 5879 5879 5879 5879 5879 5879 5878 5878 5878 5878 5877 5877 5877 5876
5852 5853 5854 5855 5856 5857 5859 5860 5860 5860 5861 5861 5862 5863 5864 5865 5865 5866 5867 5868 5869 5870 5871 5872 5873 5873 5874 5875 5876 5876 5877 5877 5878 5878 5878 5878 5878 5878 5878 5878 5878 5877 5877 5877 5876 5876 5876 5875 5875
5850 5851 5852 5853 5854 5856 5856 5858 5859 5858 5859 5859 5860 5860 5861 5862 5863 5864 5865 5865 5866 5867 5868 5869 5870 5871 5872 5873 5874 5874 5875 5876 5876 5876 5876 5876 5876 5876 5876 5876 5876 5876 5876 5876 5875 5875 5874 5874 5874
5847 5849 5850 5851 5852 5854 5854 5855 5856 5856 5857 5857 5858 5858 5858 5859 5860 5861 5862 5863 5864 5865 5866 5867 5868 5869 5870 5871 5872 5872 5873 5874 5874 5874 5875 5875 5875 5875 5875 5875 5875 5874 5874 5874 5874 5873 5873 5872 5872
5844 5847 5848 5849 5850 5851 5852 5852 5854 5854 5854 5855 5855 5855 5856 5857 5857 5858 5859 5860 5861 5862 5863 5864 5865 5866 5867 5868 5869 5870 5870 5871 5872 5872 5873 5873 5873 5873 5873 5873 5873 5873 5873 5872 5872 5872 5871 5871 5870
5842 5844 5846 5847 5847 5848 5848 5849 5851 5851 5851 5852 5852 5852 5853 5854 5854 5855 5856 5857 5858 5859 5860 5861 5862 5863 5864 5865 5866 5867 5868 5868 5869 5870 5870 5871 5871 5871 5871 5871 5871 5871 5871 5870 5870 5870 5870 5869 5869
5838 5840 5842 5843 5844 5845 5845 5847 5848 5848 5848 5849 5849 5849 5850 5851 5851 5852 5853 5854 5855 5856 5857 5858 5859 5860 5861 5862 5863 5864 5865 5866 5867 5867 5868 5868 5868 5868 5868 5868 5868 5868 5868 5868 5868 5868 5868 5867 5867
5835 5836 5838 5839 5840 5841 5843 5844 5845 5844 5845 5845 5846 5846 5846 5847 5848 5849 5850 5850 5851 5852 5853 5854 5855 5857 5858 5859 5860 5861 5862 5863 5863 5864 5865 5865 5866 5866 5866 5866 5866 5866 5866 5866 5866 5865 5865 5865 5864
5831 5833 5833 5835 5836 5838 5839 5842 5841 5841 5841 5842 5842 5843 5843 5844 5845 5845 5846 5847 5847 5848 5849 5850 5852 5853 5855 5856 5857 5858 5859 5859 5860 5861 5862 5862 5862 5863 5863 5863 5863 5863 5863 5863 5863 5862 5862 5862 5861
5827 5828 5830 5831 5832 5834 5835 5840 5837 5837 5837 5838 5838 5839 5839 5840 5841 5841 5842 5843 5844 5844 5846 5847 5848 5850 5851 5852 5853 5854 5855 5856 5857 5858 5858 5859 5859 5859 5860 5860 5860 5860 5860 5860 5859 5859 5859 5859 5858